Вернуться в каталог

STARLINK-35608

АктивенСвязьVLEO
NORAD 66508·PAYLOAD·🇺🇸 United States

Запущен Nov 15, 2025 с Cape Canaveral Space Force Station

Loading…

Ближайшие Пролёты (ближайшие 24 часа)

TLE

СвежийSource: CelesTrak SupGP

Эпоха: Sep 15, 2026, 02:48 UTC

1 66508C 25263Z   26258.11715278  .00026805  00000+0  97057-3 0  2587
2 66508  43.0041   0.9986 0001894 271.5285 256.9583 15.27574976    15

Отслеживайте STARLINK-35608 в реальном времени с AllMySat

Download on the App Store